FW4449 Weather Reports


time (UTC)temp
C
wind
direction
speed
KPH
gust
KPH
rain 1hr
cm
rain 24hr
cm
rain mn
cm
humidity
%
barometer
mb
20260508131002 5 260 14.5 22.5 0.00 0.43 0.25 88 1019.0
20260508130502 4 259 11.3 20.9 0.00 0.43 0.25 89 1018.9
20260508130005 3 257 8.0 16.1 0.00 0.43 0.25 91 1018.9
20260508125002 2 238 4.8 9.7 0.00 0.43 0.25 91 1019.1
20260508124002 2 266 8.0 11.3 0.00 0.43 0.25 93 1019.0
20260508123502 2 237 8.0 11.3 0.00 0.43 0.25 92 1019.0
20260508122503 2 233 9.7 16.1 0.00 0.43 0.25 92 1019.0
20260508121502 2 231 11.3 20.9 0.00 0.43 0.25 92 1018.8
20260508115502 2 214 8.0 12.9 0.00 0.43 0.25 93 1019.1
20260508115002 2 250 9.7 14.5 0.03 0.43 0.25 94 1019.3
20260508114502 2 248 9.7 14.5 0.03 0.43 0.25 94 1019.2
20260508114002 2 230 8.0 12.9 0.03 0.43 0.25 93 1019.2
20260508113502 2 229 8.0 11.3 0.03 0.43 0.25 93 1019.2
20260508113002 2 216 6.4 11.3 0.03 0.43 0.25 93 1019.2
20260508112502 2 224 4.8 11.3 0.05 0.43 0.25 93 1019.2
20260508112002 2 200 1.6 8.0 0.08 0.43 0.25 93 1019.0
20260508110502 2 252 4.8 6.4 0.15 0.43 0.25 93 1019.1
20260508110005 2 268 4.8 8.0 0.18 0.43 0.25 93 1019.2
20260508105502 2 281 8.0 11.3 0.20 0.43 0.25 93 1019.5
20260508105002 2 316 8.0 11.3 0.18 0.41 0.23 93 1019.7
20260508104502 2 340 9.7 12.9 0.18 0.41 0.23 93 1019.7
20260508104002 2 321 11.3 17.7 0.18 0.41 0.23 93 1019.7
20260508103502 2 328 11.3 17.7 0.18 0.41 0.23 93 1019.8
20260508103002 2 328 12.9 20.9 0.18 0.41 0.23 93 1019.7
20260508102502 2 328 16.1 25.7 0.15 0.38 0.20 93 1019.8
20260508101503 2 338 19.3 30.6 0.10 0.33 0.15 93 1020.0
20260508100502 2 345 11.3 24.1 0.05 0.28 0.10 93 1020.0
20260508100005 2 342 8.0 14.5 0.00 0.23 0.05 93 1019.7
20260508095502 2 338 8.0 11.3 0.00 0.23 0.05 94 1019.1
20260508094503 2 342 1.6 9.7 0.00 0.23 0.05 94 1018.9
20260508094003 2 8 1.6 4.8 0.00 0.23 0.05 94 1018.7
20260508093502 2 355 0.0 4.8 0.00 0.23 0.05 94 1018.9
20260508091502 2 355 6.4 11.3 0.00 0.23 0.05 93 1018.5
20260508090005 2 4 11.3 19.3 0.00 0.23 0.05 94 1018.4
20260508085002 2 23 6.4 14.5 0.05 0.23 0.05 95 1018.6
20260508084503 2 351 6.4 9.7 0.05 0.23 0.05 95 1018.5
20260508084003 2 5 4.8 8.0 0.05 0.23 0.05 94 1018.5
20260508083502 2 7 3.2 6.4 0.05 0.23 0.05 94 1018.6
20260508083002 2 32 1.6 6.4 0.05 0.23 0.05 94 1018.5
20260508082503 3 4 1.6 4.8 0.05 0.23 0.05 94 1018.5
20260508082002 3 42 3.2 6.4 0.05 0.23 0.05 94 1018.5
20260508081502 3 30 6.4 14.5 0.05 0.23 0.05 94 1018.5
20260508081002 3 353 11.3 20.9 0.05 0.23 0.05 95 1018.5
20260508080005 3 351 17.7 30.6 0.05 0.23 0.05 95 1018.9
20260508075503 3 353 12.9 30.6 0.00 0.18 0.00 95 1019.1
20260508075002 2 351 4.8 19.3 0.00 0.18 0.00 94 1018.6
20260508074502 2 33 4.8 12.9 0.00 0.18 0.00 94 1018.2
20260508074003 2 29 4.8 12.9 0.00 0.18 0.00 94 1018.1
20260508073002 2 20 0.0 4.8 0.00 0.18 0.00 93 1017.9
20260508072502 2 127 1.6 4.8 0.00 0.18 0.00 92 1017.6
20260508071502 3 126 4.8 8.0 0.00 0.18 0.00 93 1017.5
20260508071002 3 127 4.8 6.4 0.00 0.18 0.00 92 1017.5
20260508070503 3 103 4.8 6.4 0.00 0.18 0.00 92 1017.5
20260508070005 3 116 4.8 6.4 0.00 0.18 0.00 91 1017.4
20260508065502 3 132 4.8 6.4 0.00 0.18 0.00 91 1017.5
20260508064502 3 146 4.8 8.0 0.00 0.18 0.00 91 1017.7
20260508064002 3 115 3.2 6.4 0.00 0.18 0.00 91 1017.7
20260508063502 3 110 3.2 4.8 0.00 0.18 0.00 90 1017.9
20260508063003 4 110 1.6 4.8 0.00 0.18 0.00 89 1018.2
20260508062002 4 326 0.0 3.2 0.00 0.18 0.00 89 1018.5
20260508061502 4 323 0.0 3.2 0.00 0.18 0.00 89 1018.5
20260508061003 4 14 0.0 3.2 0.00 0.18 0.00 88 1018.5
20260508060503 4 14 1.6 3.2 0.00 0.18 0.00 89 1018.5
20260508060006 5 14 1.6 6.4 0.03 0.18 0.00 89 1018.6
20260508055504 5 14 3.2 6.4 0.05 0.18 0.18 89 1018.6
20260508055002 5 12 3.2 6.4 0.05 0.18 0.18 89 1018.7
20260508054502 5 15 3.2 6.4 0.05 0.18 0.18 88 1018.3
20260508054002 5 21 1.6 6.4 0.05 0.18 0.18 88 1018.4
20260508053502 5 68 1.6 6.4 0.05 0.18 0.18 87 1018.4
20260508053002 5 281 1.6 6.4 0.05 0.18 0.18 86 1018.3
20260508052002 5 333 6.4 8.0 0.05 0.18 0.18 87 1018.6
20260508051502 5 334 8.0 14.5 0.05 0.18 0.18 86 1018.7
20260508051002 5 317 9.7 14.5 0.05 0.18 0.18 85 1018.8
20260508050502 5 330 9.7 20.9 0.05 0.18 0.18 85 1018.7
20260508050005 5 328 8.0 20.9 0.03 0.15 0.15 82 1018.7
20260508045503 5 321 4.8 9.7 0.00 0.13 0.13 85 1018.7
20260508045002 5 341 4.8 9.7 0.00 0.13 0.13 86 1018.7
20260508044002 5 339 4.8 9.7 0.00 0.13 0.13 85 1018.5
20260508043502 5 340 4.8 9.7 0.00 0.13 0.13 85 1018.2
20260508043003 5 315 4.8 12.9 0.00 0.13 0.13 84 1018.0
20260508042502 5 278 4.8 8.0 0.00 0.13 0.13 86 1018.0
20260508042003 5 354 4.8 8.0 0.00 0.13 0.13 86 1017.9
20260508041502 5 340 6.4 9.7 0.00 0.13 0.13 86 1018.0
20260508041002 5 17 6.4 12.9 0.00 0.13 0.13 85 1018.1
20260508040502 5 11 6.4 12.9 0.00 0.13 0.13 84 1017.9
20260508040005 5 20 4.8 11.3 0.00 0.13 0.13 84 1017.9
20260508035003 6 352 11.3 19.3 0.00 0.13 0.13 84 1017.8
20260508034502 6 29 11.3 19.3 0.00 0.13 0.13 83 1017.9
20260508034002 6 8 11.3 19.3 0.00 0.13 0.13 82 1018.0
20260508033002 6 307 17.7 27.4 0.00 0.13 0.13 78 1018.1
20260508032502 6 295 17.7 27.4 0.00 0.13 0.13 80 1017.8
20260508032002 6 261 19.3 27.4 0.00 0.13 0.13 81 1017.4
20260508031502 6 263 20.9 29.0 0.00 0.13 0.13 80 1017.4
20260508031002 6 266 20.9 29.0 0.00 0.13 0.13 79 1017.1
20260508030502 6 257 20.9 27.4 0.00 0.13 0.13 79 1016.9
20260508030005 7 247 20.9 25.7 0.00 0.13 0.13 77 1016.8
20260508025502 7 269 19.3 25.7 0.00 0.13 0.13 76 1016.7
20260508025003 7 248 17.7 24.1 0.00 0.13 0.13 77 1016.8
20260508024502 7 255 16.1 24.1 0.00 0.13 0.13 76 1016.6
20260508024002 7 257 14.5 20.9 0.00 0.13 0.13 75 1016.6
20260508023502 7 257 16.1 22.5 0.00 0.13 0.13 74 1016.3
20260508023002 7 266 19.3 25.7 0.00 0.13 0.13 71 1016.4
20260508021502 7 297 14.5 29.0 0.00 0.13 0.13 78 1017.3
20260508021002 7 238 11.3 22.5 0.00 0.13 0.13 78 1017.1
20260508020502 7 259 8.0 19.3 0.00 0.13 0.13 80 1017.1
20260508015503 7 254 8.0 11.3 0.03 0.13 0.13 77 1016.8
20260508015002 7 241 8.0 9.7 0.03 0.13 0.13 77 1016.9
20260508014502 7 259 9.7 14.5 0.03 0.13 0.13 77 1016.9
20260508013502 7 271 12.9 17.7 0.03 0.13 0.13 80 1016.9
20260508013002 7 286 14.5 20.9 0.03 0.13 0.13 80 1016.7
20260508012502 7 277 14.5 20.9 0.03 0.13 0.13 78 1016.8
20260508012002 7 271 14.5 19.3 0.13 0.13 0.13 79 1016.9
20260508011502 7 283 16.1 22.5 0.13 0.13 0.13 78 1017.0
20260508011002 7 322 19.3 41.8 0.13 0.13 0.13 77 1017.1
20260508010502 7 312 11.3 41.8 0.13 0.13 0.13 76 1016.8
20260508010005 6 245 6.4 11.3 0.10 0.10 0.10 79 1017.1
20260508005503 6 202 6.4 11.3 0.10 0.10 0.10 81 1016.8
20260508005002 7 169 6.4 9.7 0.10 0.10 0.10 80 1016.8
20260508004502 7 174 3.2 9.7 0.10 0.10 0.10 79 1016.7
20260508004002 7 219 1.6 4.8 0.10 0.10 0.10 78 1016.7
20260508003502 6 17 6.4 12.9 0.10 0.10 0.10 81 1016.6
20260508003002 6 343 17.7 30.6 0.10 0.10 0.10 82 1016.7
20260508002502 6 359 22.5 37.0 0.10 0.10 0.10 80 1016.9
20260508002002 7 345 12.9 37.0 0.00 0.00 0.00 72 1017.1
20260508001502 9 359 6.4 22.5 0.00 0.00 0.00 67 1017.0
20260508001002 9 232 11.3 17.7 0.00 0.00 0.00 65 1016.6
20260508000503 10 190 16.1 20.9 0.00 0.00 0.00 65 1016.4
20260508000005 10 228 17.7 22.5 0.00 0.00 0.00 65 1016.2
20260507235502 10 227 17.7 24.1 0.00 0.00 0.00 63 1016.2
20260507235002 10 208 16.1 24.1 0.00 0.00 0.00 63 1016.2
20260507234502 11 257 14.5 24.1 0.00 0.00 0.00 61 1016.2
20260507234002 11 252 16.1 24.1 0.00 0.00 0.00 60 1016.3
20260507233503 10 256 19.3 24.1 0.00 0.00 0.00 59 1016.3
20260507233002 11 236 20.9 30.6 0.00 0.00 0.00 60 1016.3
20260507232502 11 267 24.1 32.2 0.00 0.00 0.00 59 1016.2
20260507232002 11 266 24.1 32.2 0.00 0.00 0.00 55 1016.3
20260507230502 12 307 32.2 46.7 0.00 0.00 0.00 52 1016.2
20260507230005 12 285 33.8 48.3 0.00 0.00 0.00 54 1016.2
20260507224003 9 297 37.0 49.9 0.00 0.00 0.00 61 1015.9
20260507223503 10 285 38.6 59.5 0.00 0.00 0.00 59 1016.1
20260507223002 10 297 37.0 59.5 0.00 0.00 0.00 59 1016.2
20260507222502 10 293 32.2 53.1 0.00 0.00 0.00 60 1016.3
20260507222002 10 294 33.8 51.5 0.00 0.00 0.00 58 1016.2
20260507221502 10 295 33.8 49.9 0.00 0.00 0.00 55 1016.3
20260507221002 11 297 30.6 49.9 0.00 0.00 0.00 55 1016.1
20260507220503 11 316 30.6 43.5 0.00 0.00 0.00 56 1016.3
20260507220004 10 295 27.4 41.8 0.00 0.00 0.00 57 1016.2
20260507215502 10 295 19.3 30.6 0.00 0.00 0.00 64 1016.2
20260507215002 9 251 22.5 29.0 0.00 0.00 0.00 68 1016.3
20260507214503 9 236 25.7 35.4 0.00 0.00 0.00 67 1016.2
20260507213502 8 295 33.8 43.5 0.00 0.00 0.00 70 1016.5
20260507213002 8 276 41.8 56.3 0.00 0.00 0.00 71 1016.5
20260507212502 8 288 37.0 56.3 0.00 0.00 0.00 68 1016.6
20260507212002 10 288 25.7 51.5 0.00 0.00 0.00 60 1016.8
20260507211503 11 278 22.5 32.2 0.00 0.00 0.00 57 1016.6
20260507211003 11 257 24.1 35.4 0.00 0.00 0.00 58 1016.5
20260507210005 11 314 32.2 53.1 0.00 0.00 0.00 56 1016.7
20260507205502 11 290 33.8 53.1 0.00 0.00 0.00 55 1016.7
20260507205003 11 288 32.2 49.9 0.00 0.00 0.00 53 1016.7
20260507204503 12 290 24.1 49.9 0.00 0.00 0.00 48 1016.7
20260507204002 12 304 19.3 38.6 0.00 0.00 0.00 47 1016.5
20260507203503 11 328 17.7 27.4 0.00 0.00 0.00 46 1016.5
20260507203002 11 341 30.6 57.9 0.00 0.00 0.00 51 1016.7
20260507202502 11 322 25.7 57.9 0.00 0.00 0.00 50 1016.6
20260507202002 12 314 14.5 51.5 0.00 0.00 0.00 42 1016.4
20260507201502 12 353 11.3 27.4 0.00 0.00 0.00 43 1016.3
20260507201003 12 303 9.7 22.5 0.00 0.00 0.00 42 1016.4
20260507200503 12 231 11.3 27.4 0.00 0.00 0.00 40 1016.6
20260507200005 12 335 14.5 27.4 0.00 0.00 0.00 44 1016.7
20260507195502 12 307 16.1 37.0 0.00 0.10 0.00 42 1016.7
20260507195003 12 321 14.5 29.0 0.00 0.10 0.00 43 1016.8
20260507194502 12 267 14.5 22.5 0.00 0.10 0.00 42 1016.8
20260507194002 12 320 16.1 40.2 0.00 0.10 0.00 45 1017.0
20260507193503 12 349 11.3 40.2 0.00 0.10 0.00 43 1017.0
20260507193002 11 283 6.4 16.1 0.00 0.10 0.00 46 1017.0
20260507192502 11 311 11.3 16.1 0.00 0.10 0.00 48 1016.9
20260507191003 12 271 17.7 30.6 0.00 0.10 0.00 49 1017.2
20260507190502 12 317 17.7 29.0 0.00 0.10 0.00 49 1017.1
20260507185503 12 284 24.1 40.2 0.00 0.28 0.00 45 1017.3
20260507185002 12 302 24.1 40.2 0.00 0.28 0.00 44 1017.3
20260507184502 12 271 29.0 43.5 0.00 0.28 0.00 43 1017.3
20260507184002 12 283 29.0 43.5 0.00 0.28 0.00 44 1017.4
20260507183502 12 290 25.7 35.4 0.00 0.28 0.00 46 1017.4
20260507183003 12 277 25.7 40.2 0.00 0.28 0.00 49 1017.4
20260507182002 11 266 16.1 22.5 0.00 0.28 0.00 51 1017.5
20260507181502 10 283 17.7 27.4 0.00 0.28 0.00 52 1017.5
20260507181002 10 257 20.9 27.4 0.00 0.28 0.00 53 1017.5
20260507180502 10 250 20.9 29.0 0.00 0.28 0.00 52 1017.5
20260507180005 9 263 22.5 30.6 0.00 0.28 0.00 56 1017.5
20260507175503 9 245 22.5 30.6 0.00 0.38 0.00 58 1017.5
20260507175003 8 240 22.5 30.6 0.00 0.38 0.00 56 1017.5
20260507174503 8 264 20.9 30.6 0.00 0.38 0.00 52 1017.6
20260507173502 8 250 22.5 29.0 0.00 0.38 0.00 55 1017.6
20260507173003 8 243 22.5 29.0 0.00 0.38 0.00 52 1017.7
20260507172502 9 248 20.9 29.0 0.00 0.38 0.00 51 1017.8
20260507172002 10 275 20.9 29.0 0.00 0.38 0.00 50 1017.8
20260507171502 10 252 19.3 29.0 0.00 0.38 0.00 52 1017.8
20260507171003 9 264 17.7 25.7 0.00 0.38 0.00 52 1018.0
20260507170503 8 235 17.7 24.1 0.00 0.38 0.00 50 1018.1
20260507170005 9 245 17.7 37.0 0.00 0.38 0.00 51 1018.2
20260507165502 9 250 19.3 37.0 0.00 0.38 0.00 53 1018.2
20260507165002 9 256 20.9 27.4 0.00 0.38 0.00 51 1018.3
20260507164002 9 236 22.5 35.4 0.00 0.38 0.00 52 1018.3
20260507163502 8 238 24.1 35.4 0.00 0.38 0.00 52 1018.3
20260507163002 8 288 24.1 32.2 0.00 0.38 0.00 53 1018.3
20260507162502 8 236 25.7 33.8 0.00 0.38 0.00 53 1018.4
20260507161003 7 274 20.9 29.0 0.00 0.38 0.00 58 1018.6
20260507160502 7 258 20.9 32.2 0.00 0.38 0.00 56 1018.6
20260507160005 7 240 20.9 27.4 0.00 0.38 0.00 56 1018.7
20260507155503 7 237 20.9 27.4 0.00 0.38 0.00 58 1018.7
20260507155002 7 258 22.5 32.2 0.00 0.38 0.00 57 1018.8
20260507154003 7 271 20.9 27.4 0.00 0.38 0.00 56 1018.8
20260507153502 7 256 20.9 25.7 0.00 0.38 0.00 55 1018.7
20260507153002 7 245 20.9 29.0 0.00 0.38 0.00 56 1018.8
20260507152503 6 245 22.5 29.0 0.00 0.38 0.00 55 1018.8
20260507152002 6 259 22.5 29.0 0.00 0.38 0.00 56 1018.7
20260507151502 6 240 25.7 32.2 0.00 0.38 0.00 56 1019.0
20260507151002 6 251 24.1 37.0 0.00 0.38 0.00 56 1019.1
20260507150503 6 273 24.1 37.0 0.00 0.38 0.00 54 1019.1
20260507150005 6 274 22.5 33.8 0.00 0.38 0.00 54 1019.1
20260507145501 6 275 20.9 33.8 0.00 0.38 0.00 55 1019.1
20260507145001 6 278 22.5 30.6 0.00 0.38 0.00 57 1019.1
20260507144501 6 277 20.9 29.0 0.00 0.38 0.00 54 1018.9
20260507143502 6 271 22.5 35.4 0.00 0.38 0.00 53 1018.8
20260507143001 6 297 25.7 35.4 0.00 0.38 0.00 54 1018.8
20260507142502 6 291 27.4 35.4 0.00 0.38 0.00 54 1018.7
20260507142001 6 279 29.0 37.0 0.00 0.38 0.00 57 1018.7
20260507141501 6 285 29.0 37.0 0.00 0.38 0.00 55 1018.6
20260507141001 6 275 29.0 38.6 0.00 0.38 0.00 55 1018.7
20260507140501 6 285 30.6 41.8 0.00 0.38 0.00 55 1018.8
20260507140006 5 283 32.2 41.8 0.00 0.38 0.00 55 1018.9
20260507135502 5 274 32.2 41.8 0.00 0.38 0.00 55 1018.8
20260507135002 5 279 33.8 45.1 0.00 0.38 0.00 55 1018.7
20260507134502 5 268 33.8 48.3 0.00 0.38 0.00 56 1018.4
20260507134001 5 271 30.6 43.5 0.00 0.38 0.00 57 1018.3
20260507133501 5 300 25.7 41.8 0.00 0.38 0.00 58 1018.1
20260507133002 5 293 24.1 37.0 0.00 0.38 0.00 60 1018.2
20260507132501 4 274 22.5 37.0 0.00 0.38 0.00 59 1018.2
20260507132001 4 274 20.9 30.6 0.00 0.38 0.00 60 1018.2
20260507131502 3 279 17.7 27.4 0.00 0.38 0.00 60 1018.1